Location: Finkenwalde
(53.3770°N, 14.6418°E)
Time: 10:02:50
(UTC+00:00)

Cosmos 44 - Pass Details

Date: 05 February 2023
Orbit: 583 x 776 km, 65.1° (Epoch: 19 March)

Event Time Altitude Azimuth Distance (km) Brightness Sun altitude
Rises 16:36:22 0° 246° (WSW) 2,829 8.9 -7.0°
Reaches altitude 10° 16:38:40 10° 254° (WSW) 1,947 7.4 -7.3°
Maximum altitude 16:42:51 42° 326° (NW) 889 4.0 -7.9°
Drops below altitude 10° 16:47:15 10° 38° (NE) 2,049 5.3 -8.6°
Enters shadow 16:48:07 - 41° (NE) 2,376 5.6 -8.7°
